Weather in Belasovka

Russia / Nizhny Novgorod Oblast'     56°54′59″N   44°36′40″E
temp.,
°C
wind,
m/s
gust,
m/s
humid.,
%
clouds,
%
prec.,
mm/h
press.,
hPa
HPBL,
m
9 december, thu
thu900:00−1n2498100 2.0 1021171
03:00−3nne3697100 2.3 1021210
06:00−5nne3796100 0.4 1021243
09:00−6n3695100 1.9 1022230
12:00−6n3694100 1.4 1022272
15:00−6n3895100 3.1 1023370
18:00−10nnw399441 0.3 1025259
21:00−13n39945 0.3 1027204
10 december, fri
fri1000:00−15n27965 0.0 1029156
03:00−16nnw26975 0.0 1031124
06:00−17n27965 0.0 1033129
09:00−17nne27975 0.0 1034127
12:00−12ne24875 0.0 1035188
15:00−14nne119714 0.0 103612
18:00−17ne23989 0.0 103841
21:00−17ene27975 0.0 1039117
11 december, sat
sat1100:00−17ene26975 0.0 1040108
03:00−17ene28965 0.0 1040136
06:00−17ene26965 0.0 1041124
09:00−17e26965 0.0 1042116
12:00−11ese25845 0.0 1041178
15:00−13e23945 0.0 104262
18:00−15ese26955 0.0 104290
21:00−14ese28925 0.0 1042132
12 december, sun
sun1200:00−13se311895 0.0 1042206
03:00−13se29915 0.0 1042169
06:00−13se299219 0.0 1042153
09:00−13se29925 0.0 1042155
12:00−8sse298486 0.0 1041247
15:00−11se11956 0.0 104112
18:00−13sse269546 0.0 104192
21:00−13s269547 0.0 104095
13 december, mon
mon1300:00−13s259411 0.0 104064
03:00−13s25938 0.0 103975
06:00−13s269286 0.0 103886
09:00−12s2691100 0.0 1038107
12:00−8s2882100 0.0 1037211
15:00−8sse2689100 0.0 1036120
18:00−8s2887100 0.0 1035156
21:00−7ssw2984100 0.0 1034215